WetterOnline ( https://www.wetteronline.at )

Wetter aktuell Mühldorf

Aktuelles Wetter: Mühldorf am Inn (410m)

6-stündlich | Neueste Meldungen
Ortszeit Temperatur Wetter
Di, 29.09. 8:00 7.2° C bedeckt
Di, 29.09. 2:00 7.9° C bedeckt
Mo, 28.09. 20:00 8.6° C Regen
Mo, 28.09. 14:00 9.6° C Sprühregen
Mo, 28.09. 8:00 5.9° C leichter Regen
Mo, 28.09. 2:00 4.0° C wolkig
So, 27.09. 20:00 9.7° C leicht bewölkt
So, 27.09. 14:00 13.8° C wolkenlos
Ortszeit Temperatur Wetter
Di, 29.09. 8:00 7.2° C bedeckt
Di, 29.09. 7:50 7.2° C bedeckt
Di, 29.09. 7:40 7.0° C bewölkt
Di, 29.09. 7:30 7.0° C leicht bewölkt
Di, 29.09. 7:20 7.0° C leicht bewölkt
Di, 29.09. 7:10 7.2° C wolkig
Di, 29.09. 7:00 7.4° C bedeckt
Di, 29.09. 6:30 7.6° C bedeckt
Di, 29.09. 6:00 7.8° C bedeckt
Di, 29.09. 5:30 7.8° C bedeckt
Di, 29.09. 5:00 7.9° C bedeckt
Ortszeit Relative Feuchte Sichtweite
Di, 29.09. 8:00 99% 6 km
Di, 29.09. 2:00 97% 10 km
Mo, 28.09. 20:00 96% 27 km
Mo, 28.09. 14:00 86% 45 km
Mo, 28.09. 8:00 96% 24 km
Mo, 28.09. 2:00 97% 65 km
So, 27.09. 20:00 76% 50 km
So, 27.09. 14:00 49% >70 km
Ortszeit Relative Feuchte Sichtweite
Di, 29.09. 8:00 99% 6 km
Di, 29.09. 7:50 99% -
Di, 29.09. 7:40 97% -
Di, 29.09. 7:30 97% 1.6 km
Di, 29.09. 7:20 97% -
Di, 29.09. 7:10 97% -
Di, 29.09. 7:00 97% 10 km
Di, 29.09. 6:30 96% 12 km
Di, 29.09. 6:00 96% 27 km
Di, 29.09. 5:30 96% 22 km
Di, 29.09. 5:00 95% 25 km
Ortszeit Niederschlagsmenge Niederschlagsart
Di, 29.09. 8:00 1 l/m2 in 12 Std. Regen
Di, 29.09. 2:00 1 l/m2 in 6 Std. Regen
Mo, 28.09. 20:00 3 l/m2 in 12 Std. Regen
Mo, 28.09. 14:00 1 l/m2 in 6 Std. Regen
Mo, 28.09. 8:00 0.2 l/m2 in 12 Std. Regen
Mo, 28.09. 2:00 0.0 l/m2 in 6 Std. -
So, 27.09. 20:00 0.0 l/m2 in 12 Std. -
So, 27.09. 14:00 0.0 l/m2 in 6 Std. -
Ortszeit Niederschlagsmenge Niederschlagsart
Di, 29.09. 8:00 0.0 l/m2 in 1 Std. Regen
Di, 29.09. 7:50 keine Meldung -
Di, 29.09. 7:40 keine Meldung -
Di, 29.09. 7:30 0.0 l/m2 in 1 Std. -
Di, 29.09. 7:20 keine Meldung -
Di, 29.09. 7:10 keine Meldung -
Di, 29.09. 7:00 0.0 l/m2 in 1 Std. -
Di, 29.09. 6:30 0.0 l/m2 in 1 Std. -
Di, 29.09. 6:00 0.0 l/m2 in 1 Std. -
Di, 29.09. 5:30 0.0 l/m2 in 1 Std. -
Di, 29.09. 5:00 0.0 l/m2 in 1 Std. Regen
Ortszeit Stärke Spitze Richtung
km/h Bft. km/h Grad Sektor
Di, 29.09. 8:00 4 1 7 250° W
Di, 29.09. 2:00 0 0 14 - -
Mo, 28.09. 20:00 4 1 11 280° W
Mo, 28.09. 14:00 4 1 14 90° O
Mo, 28.09. 8:00 4 1 11 10° N
Mo, 28.09. 2:00 4 1 14 280° W
So, 27.09. 20:00 7 2 29 90° O
So, 27.09. 14:00 7 2 18 180° S
Ortszeit Stärke Spitze Richtung
km/h Bft. km/h Grad Sektor
Di, 29.09. 8:00 4 1 4 250° W
Di, 29.09. 7:50 4 1 - 250° W
Di, 29.09. 7:40 4 1 - 220° SW
Di, 29.09. 7:30 2 1 6 30° NO
Di, 29.09. 7:20 2 1 - 30° NO
Di, 29.09. 7:10 2 1 - 60° NO
Di, 29.09. 7:00 4 1 7 100° O
Di, 29.09. 6:30 4 1 7 80° O
Di, 29.09. 6:00 4 1 7 160° S
Di, 29.09. 5:30 2 1 6 150° SO
Di, 29.09. 5:00 4 1 7 110° O
Ortszeit Untergrenze Bedeckung Gattung
total tief tief mittel hoch
Di, 29.09. 8:00 3000 m 8/8 8/8 - - -
Di, 29.09. 2:00 2100 m 8/8 8/8 - - -
Mo, 28.09. 20:00 1260 m 8/8 8/8 - - -
Mo, 28.09. 14:00 390 m 8/8 8/8 - - -
Mo, 28.09. 8:00 1320 m 0/8 0/8 - - -
Mo, 28.09. 2:00 5700 m 8/8 1/8 - - -
So, 27.09. 20:00 8400 m 3/8 0/8 - - -
So, 27.09. 14:00 - 0/8 0/8 - - -
Ortszeit Bedeckungsgrad in Achtel und Wolkenuntergrenze
Di, 29.09. 8:00 8(3000m)
Di, 29.09. 7:50 8(3000m)
Di, 29.09. 7:40 7(3000m)
Di, 29.09. 7:30 4(3000m)
Di, 29.09. 7:20 4(3000m)
Di, 29.09. 7:10 5(3000m)
Di, 29.09. 7:00 8(3000m)
Di, 29.09. 6:30 8(3000m)
Di, 29.09. 6:00 8(3000m)
Di, 29.09. 5:30 8(3000m)
Di, 29.09. 5:00 8(2700m)
Ortszeit Luftdruck NN (hPa) Tendenz (hPa in 3 Std.)
Di, 29.09. 8:00 1018 + 0,7
Di, 29.09. 2:00 1017 - 0,1
Mo, 28.09. 20:00 1015 + 1,7
Mo, 28.09. 14:00 1012 + 1,1
Mo, 28.09. 8:00 1010 + 1,3
Mo, 28.09. 2:00 1009 + 0,4
So, 27.09. 20:00 1008 + 1,2
So, 27.09. 14:00 1006 + 0,2
Ortszeit Luftdruck NN (hPa) Tendenz (hPa in 3 Std.)
Di, 29.09. 8:00 1018 + 0,7
Di, 29.09. 7:50 1018 keine Meldung
Di, 29.09. 7:40 1018 keine Meldung
Di, 29.09. 7:30 1018 + 0,6
Di, 29.09. 7:20 1018 keine Meldung
Di, 29.09. 7:10 1017 keine Meldung
Di, 29.09. 7:00 1017 + 0,4
Di, 29.09. 6:30 1017 + 0,3
Di, 29.09. 6:00 1017 + 0,1
Di, 29.09. 5:30 1017 + 0,2
Di, 29.09. 5:00 1017 + 0,4
Ortszeit Schneehöhe (cm)
Di, 29.09. 8:00 -
Di, 29.09. 2:00 -
Mo, 28.09. 20:00 -
Mo, 28.09. 14:00 -
Mo, 28.09. 8:00 -
Mo, 28.09. 2:00 -
So, 27.09. 20:00 -
So, 27.09. 14:00 -
Ortszeit Schneehöhe (cm)
Di, 29.09. 8:00 -
Di, 29.09. 7:50 -
Di, 29.09. 7:40 -
Di, 29.09. 7:30 -
Di, 29.09. 7:20 -
Di, 29.09. 7:10 -
Di, 29.09. 7:00 -
Di, 29.09. 6:30 -
Di, 29.09. 6:00 -
Di, 29.09. 5:30 -
Di, 29.09. 5:00 -
Link zu dieser Seite / Seite empfehlen

Das Wetter in ...